Regional Weather Roundup
Issued by NWS

Home | Current Version | Previous Version | Graphics & Text | Print | Product List | Glossary Off
Versions: 1 2 3 4 5 6 7 8 9 10 11 12 13 14 15 16 17 18 19 20 21 22 23 24 25 26 27 28 29 30 31 32 33 34 35 36 37 38 39 40 41 42 43 44 45 46 47 48 49 50

000
ASUS43 KMKX 040821
RWRWI

WISCONSIN REGIONAL WEATHER ROUNDUP
NATIONAL WEATHER SERVICE MILWAUKEE/SULLIVAN WI
300 AM CDT WED MAY 04 2016

NOTE: "FAIR" INDICATES FEW OR NO CLOUDS BELOW 12,000 FEET WITH NO
SIGNIFICANT WEATHER AND/OR OBSTRUCTIONS TO VISIBILITY.

WIZ001-002-006>008-014>016-023>028-040900-
NORTHWEST WISCONSIN

CITY           SKY/WX    TMP DP  RH WIND       PRES   REMARKS
SUPERIOR ARPT  CLEAR     47  32  55 N10G18    29.90S
ASHLAND        CLEAR     35  33  92 SW3       29.87S
HAYWARD        CLEAR     36  30  79 CALM      29.87S
SIREN          CLEAR     40  30  66 CALM      29.90R
CUMBERLAND     CLEAR     43  32  65 N5        29.87S
RICE LAKE      CLEAR     45  32  60 N6        29.89R
CHETEK         CLEAR     45  34  64 N7        29.87R
LADYSMITH      CLEAR     41  35  78 NW6       29.86S
EAU CLAIRE     CLEAR     46  34  62 N12       29.84R
MENOMONIE      CLEAR     48  32  53 N16G24    29.86R
NEW RICHMOND   CLEAR     45  32  59 N6        29.89R
OSCEOLA        CLEAR     48  33  55 N6        29.93R
$$

WIZ003>005-009-010-017-018-040900-
NORTH CENTRAL WISCONSIN

CITY           SKY/WX    TMP DP  RH WIND       PRES   REMARKS
MANITOWISH WTR CLOUDY    41  36  81 N12       29.80F
ARBOR VITAE    CLOUDY    42  37  83 N7        29.79F
WOODRUFF       CLOUDY    42  37  83 N7        29.79F
RHINELANDER    MOCLDY    40  34  79 N6        29.79S
EAGLE RIVER    CLOUDY    39  33  78 N8        29.78S WCI  34
LAND O LAKES   CLOUDY    40  35  81 N10       29.79S WCI  34
PHILLIPS       MOCLDY    40  35  80 N5        29.81S
TOMAHAWK       PTCLDY    37  34  92 CALM      29.80F
MEDFORD        CLEAR     39  37  89 N9        29.80S WCI  33
MERRILL        PTCLDY    39  38  99 N5        29.80R
$$

WIZ029-030-035-036-043>047-040900-
CENTRAL WISCONSIN

CITY           SKY/WX    TMP DP  RH WIND       PRES   REMARKS
WAUSAU         CLOUDY    44  38  79 N10       29.77R
MOSINEE        MOCLDY    41  39  93 N10       29.78R
MARSHFIELD     CLOUDY    45  38  76 N10G22    29.78R
STEVENS POINT  MOCLDY    40  39  93 N9        29.77R WCI  35
WAUPACA        CLEAR     45  42  88 NW7       29.74R
WAUTOMA        CLEAR     45  41  86 N9        29.74R
WISC RAPIDS    CLEAR     43  39  86 N13G24    29.78R
CAMP DOUGLAS   CLOUDY    43  43 100 NW8       29.76R
$$

WIZ011>013-019>022-031-037>040-048>050-040900-
NORTHEAST WISCONSIN

CITY           SKY/WX    TMP DP  RH WIND       PRES   REMARKS
ANTIGO         PTCLDY    38  35  88 N12G17    29.76S WCI  30
SHAWANO        PTCLDY    44  39  81 N13       29.74R
OCONTO         CLEAR     41  40  95 N10G20    29.73R
STURGEON BAY   PTCLDY    41  34  75 N16G24    29.73R
GREEN BAY      LGT RAIN  45  40  82 N10       29.71S
MANITOWOC      CLOUDY    44  41  89 N9G20     29.68S
APPLETON       PTCLDY    43  41  93 N15       29.70R
CLINTONVILLE   CLEAR     43  39  87 N6        29.74R
OSHKOSH        MOCLDY    46  42  86 N16       29.70R
$$

WIZ032>034-041-042-053>061-040900-
SOUTHWEST WISCONSIN

CITY           SKY/WX    TMP DP  RH WIND       PRES   REMARKS
LA CROSSE      CLEAR     49  42  77 N10       29.79R
SPARTA         MOCLDY    42  42 100 N6        29.78R
VIROQUA        CLEAR     45  45 100 N9        29.75S
BOSCOBEL       FOG       45  45 100 CALM      29.74R VSB<1/4
PRAIRIE DU CHI PTCLDY    48  47  96 NW5       29.75R
PLATTEVILLE    CLEAR     44  44  99 NW6       29.71S
$$

WIZ056-057-062-063-064-067-068-040900-
SOUTH CENTRAL WISCONSIN

CITY           SKY/WX    TMP DP  RH WIND       PRES   REMARKS
REEDSBURG      CLEAR     45  44  97 N8        29.72S
BARABOO/DELLS  CLEAR     45  43  94 N7        29.72S
LONE ROCK      CLEAR     48  45  89 N10       29.73R
MINERAL POINT  CLEAR     45  45 100 NW7       29.71R
MADISON        CLEAR     45  43  93 N8        29.69R
MIDDLETON      CLEAR     46  46  99 N8        29.70S
WATERTOWN      CLOUDY    46  46 100 N7        29.67R
MONROE         CLEAR     45  45 100 NW9       29.67F
JANESVILLE     PTCLDY    45  45 100 NW7       29.66S
$$

WIZ051-052-058>065-066-070>072-040900-
SOUTHEAST WISCONSIN

CITY           SKY/WX    TMP DP  RH WIND       PRES   REMARKS
MILWAUKEE      CLOUDY    49  46  90 N8        29.65S
WAUKESHA       CLOUDY    45  43  93 NW5       29.66S
MILWAUKEE/TIMM CLOUDY    46  45  93 N8        29.66S
RACINE         CLOUDY    47  44  90 N8        29.66R
BURLINGTON     CLOUDY    46  46  99 NW6       29.65S
KENOSHA        CLOUDY    49  47  93 NE7       29.64S
FOND DU LAC    PTCLDY    47  43  86 NE14      29.70R
SHEBOYGAN      PTCLDY    46  41  82 N13G18    29.67R
WEST BEND      MOCLDY    46  43  87 N8G16     29.67R
JUNEAU         CLEAR     44  43  97 N9        29.70R
$$

LSZ147-162-040900-
LAKE SUPERIOR

STATION/POSITION TIME  TEMP    WIND        PRES    WAVE
                       AIR SEA DIR/SP/G            HT/PER
                 (UTC) (F)     (DEG/KT/KT) (MB)    (FT/S)
W MID LAKE BUOY  0750   42 37  360/  8/ 10 1011.2R   1/ 4
DEVILS ISLAND    0800   45     350/ 13/ 14 1012.0R
SAXON HARBOR     0700   40     210/  2/  2 1010.5S
$$

LMZ867-665-643>646-040900-
LAKE MICHIGAN

STATION/POSITION TIME  TEMP    WIND        PRES    WAVE
                       AIR SEA DIR/SP/G            HT/PER
                 (UTC) (F)     (DEG/KT/KT) (MB)    (FT/S)
CHAMBERS ISLAND  0700   43     330/ 16/ 21 1006.4S
N MID LAKE BUOY  0750   40 38  320/ 16/ 17 1004.3S   3/ 4
NORTHPORT PIER   0700   41     320/ 17/ 20 1005.8S
ALGOMA LAKESHORE 0715          360/ 18/ 23   N/A
KEWAUNEE LAKESHO 0700   45     360/  8/ 14 1004.8R
SHEBOYGAN LAKESH 0800   44      10/ 17/ 18 1005.0R
PORT WASHINGTON  0700   49     360/  5/  8 1005.1S
S MID LAKE BUOY  0750   45 41   10/ 14/ 16 1002.5F   1/ 3
KENOSHA   LAKESH 0800   47      10/ 16/ 18 1004.1S
$$

TC  - TEMPERATURE IN CELSIUS
VSB - VISIBILITY IN STATUTE MILES
WCI - WIND CHILL INDEX
HX  - HEAT INDEX




USA.gov is the U.S. government's official web portal to all federal, state and local government web resources and services.